QAK145 MMMY-MMGL

Flight info

Callsign QAK145
Flight time 1h 6m
Altitude 34000
Route KERGA1A KERGA UT44 MEZCA MEZCA1B
Aircraft A320/M-SDE3FGHIRWY/LB1

Departure

Time 2026-04-22 02:30
Airport Monterrey International Airport (MMMY)

Arrival

Time 2026-04-22 03:36
Airport Guadalajara International Airport (MMGL)
Time Latitude Longitude Altitude Speed Heading
2026-04-22 02:10 25.77738 -100.11038 1280 ft 0 kts 31°
2026-04-22 02:20 25.77734 -100.11040 1280 ft 2 kts 31°
2026-04-22 02:20 25.77719 -100.11050 1281 ft 3 kts 21°
2026-04-22 02:20 25.77701 -100.11054 1282 ft 3 kts 349°
2026-04-22 02:20 25.77685 -100.11047 1283 ft 3 kts 315°
2026-04-22 02:21 25.77672 -100.11030 1283 ft 2 kts 303°
2026-04-22 02:21 25.77667 -100.11021 1284 ft 1 kts 303°
2026-04-22 02:21 25.77667 -100.11020 1284 ft 0 kts 303°
2026-04-22 02:25 25.77671 -100.11027 1283 ft 4 kts 303°
2026-04-22 02:25 25.77698 -100.11075 1281 ft 9 kts 302°
2026-04-22 02:25 25.77756 -100.11080 1281 ft 10 kts 30°
2026-04-22 02:25 25.77816 -100.11050 1281 ft 8 kts 358°
2026-04-22 02:26 25.77855 -100.11102 1281 ft 10 kts 302°
2026-04-22 02:26 25.77895 -100.11172 1281 ft 12 kts 302°
2026-04-22 02:26 25.77940 -100.11256 1281 ft 14 kts 302°
2026-04-22 02:26 25.77993 -100.11350 1281 ft 15 kts 301°
2026-04-22 02:27 25.78051 -100.11458 1282 ft 17 kts 301°
2026-04-22 02:27 25.78116 -100.11576 1281 ft 19 kts 302°
2026-04-22 02:27 25.78185 -100.11701 1281 ft 16 kts 301°
2026-04-22 02:27 25.78240 -100.11798 1281 ft 13 kts 311°
2026-04-22 02:28 25.78301 -100.11786 1281 ft 10 kts 26°
2026-04-22 02:28 25.78317 -100.11776 1281 ft 2 kts 31°
2026-04-22 02:28 25.78336 -100.11763 1281 ft 6 kts 32°
2026-04-22 02:28 25.78384 -100.11721 1283 ft 12 kts 48°
2026-04-22 02:29 25.78366 -100.11629 1281 ft 17 kts 121°
2026-04-22 02:29 25.78191 -100.11312 1281 ft 88 kts 121°
2026-04-22 02:29 25.77745 -100.10508 1284 ft 154 kts 122°
2026-04-22 02:29 25.77149 -100.09435 1770 ft 167 kts 122°
2026-04-22 02:30 25.76516 -100.08322 2461 ft 173 kts 123°
2026-04-22 02:30 25.75887 -100.07193 3168 ft 177 kts 122°
2026-04-22 02:30 25.75215 -100.05968 3530 ft 196 kts 121°
2026-04-22 02:30 25.74318 -100.04732 3742 ft 218 kts 143°
2026-04-22 02:31 25.72849 -100.04180 3923 ft 237 kts 177°
2026-04-22 02:31 25.71124 -100.04140 4242 ft 259 kts 179°
2026-04-22 02:31 25.69279 -100.04064 4974 ft 268 kts 178°
2026-04-22 02:31 25.67402 -100.03971 5846 ft 272 kts 178°
2026-04-22 02:32 25.65499 -100.03874 6710 ft 275 kts 178°
2026-04-22 02:32 25.63571 -100.03773 7570 ft 279 kts 178°
2026-04-22 02:32 25.61620 -100.03673 8411 ft 282 kts 178°
2026-04-22 02:32 25.59642 -100.03574 9235 ft 286 kts 178°
2026-04-22 02:33 25.57663 -100.03477 10033 ft 290 kts 178°
2026-04-22 02:33 25.55591 -100.03376 10496 ft 308 kts 178°
2026-04-22 02:33 25.53366 -100.03270 10740 ft 332 kts 178°
2026-04-22 02:33 25.50985 -100.03157 11041 ft 351 kts 178°
2026-04-22 02:34 25.48518 -100.03039 11671 ft 358 kts 178°
2026-04-22 02:34 25.46011 -100.02920 12384 ft 362 kts 178°
2026-04-22 02:34 25.43481 -100.02799 13110 ft 366 kts 178°
2026-04-22 02:34 25.40918 -100.02677 13808 ft 370 kts 178°
2026-04-22 02:35 25.38362 -100.02555 14503 ft 374 kts 178°
2026-04-22 02:35 25.35751 -100.02431 15198 ft 378 kts 178°
2026-04-22 02:35 25.33099 -100.02304 15880 ft 382 kts 178°
2026-04-22 02:35 25.30433 -100.02179 16553 ft 385 kts 178°
2026-04-22 02:36 25.27743 -100.02052 17201 ft 389 kts 178°
2026-04-22 02:36 25.25018 -100.01922 17837 ft 393 kts 178°
2026-04-22 02:36 25.22273 -100.01788 18461 ft 397 kts 178°
2026-04-22 02:36 25.19503 -100.01653 19056 ft 401 kts 178°
2026-04-22 02:37 25.16698 -100.01519 19639 ft 405 kts 178°
2026-04-22 02:37 25.13857 -100.01385 19931 ft 409 kts 178°
2026-04-22 02:37 25.11019 -100.01250 19998 ft 408 kts 178°
2026-04-22 02:37 25.08183 -100.01114 20010 ft 408 kts 178°
2026-04-22 02:38 25.05379 -100.00978 20012 ft 409 kts 178°
2026-04-22 02:38 25.02527 -100.00842 20012 ft 409 kts 178°
2026-04-22 02:38 24.99671 -100.00708 20077 ft 413 kts 178°
2026-04-22 02:38 24.96793 -100.00820 20648 ft 416 kts 187°
2026-04-22 02:39 24.93950 -100.01467 21170 ft 420 kts 197°
2026-04-22 02:39 24.91228 -100.02651 21637 ft 423 kts 207°
2026-04-22 02:39 24.88675 -100.04278 22172 ft 425 kts 211°
2026-04-22 02:39 24.86126 -100.05957 22665 ft 428 kts 211°
2026-04-22 02:40 24.83549 -100.07642 23029 ft 432 kts 211°
2026-04-22 02:40 24.80950 -100.09334 23508 ft 434 kts 211°
2026-04-22 02:40 24.78341 -100.11030 23929 ft 438 kts 211°
2026-04-22 02:40 24.75702 -100.12746 24368 ft 440 kts 211°
2026-04-22 02:41 24.73055 -100.14468 24725 ft 444 kts 211°
2026-04-22 02:41 24.70415 -100.16185 25083 ft 447 kts 211°
2026-04-22 02:41 24.67708 -100.17947 25456 ft 450 kts 211°
2026-04-22 02:41 24.65010 -100.19704 25844 ft 452 kts 211°
2026-04-22 02:42 24.62298 -100.21471 26247 ft 454 kts 211°
2026-04-22 02:42 24.59574 -100.23246 26622 ft 457 kts 211°
2026-04-22 02:42 24.56826 -100.25033 26975 ft 459 kts 211°
2026-04-22 02:42 24.54070 -100.26821 27318 ft 462 kts 211°
2026-04-22 02:43 24.51333 -100.28593 27646 ft 464 kts 211°
2026-04-22 02:43 24.48546 -100.30398 27972 ft 466 kts 211°
2026-04-22 02:43 24.45744 -100.32214 28312 ft 469 kts 211°
2026-04-22 02:43 24.42924 -100.34042 28643 ft 471 kts 211°
2026-04-22 02:44 24.40098 -100.35873 28967 ft 474 kts 211°
2026-04-22 02:44 24.37243 -100.37719 29272 ft 476 kts 211°
2026-04-22 02:44 24.34384 -100.39566 29651 ft 476 kts 211°
2026-04-22 02:44 24.31538 -100.41407 30118 ft 474 kts 211°
2026-04-22 02:45 24.28701 -100.43242 30568 ft 473 kts 211°
2026-04-22 02:45 24.25868 -100.45074 30985 ft 472 kts 211°
2026-04-22 02:45 24.23041 -100.46900 31389 ft 471 kts 211°
2026-04-22 02:45 24.20215 -100.48722 31813 ft 470 kts 211°
2026-04-22 02:46 24.17436 -100.50513 32226 ft 469 kts 211°
2026-04-22 02:46 24.14625 -100.52324 32607 ft 469 kts 211°
2026-04-22 02:46 24.11814 -100.54137 32955 ft 469 kts 211°
2026-04-22 02:46 24.08999 -100.55950 33305 ft 468 kts 211°
2026-04-22 02:47 24.06192 -100.57756 33668 ft 468 kts 211°
2026-04-22 02:47 24.03386 -100.59560 33948 ft 468 kts 211°
2026-04-22 02:47 24.01527 -100.60755 33990 ft 466 kts 211°
2026-04-22 02:48 23.95976 -100.64325 34010 ft 461 kts 211°
2026-04-22 02:48 23.90449 -100.67872 34009 ft 460 kts 211°
2026-04-22 02:48 23.87698 -100.69632 33038 ft 452 kts 216°
2026-04-22 02:49 23.85039 -100.71328 33221 ft 433 kts 216°
2026-04-22 02:49 23.82463 -100.72970 33402 ft 425 kts 216°
2026-04-22 02:49 23.79914 -100.74600 33597 ft 422 kts 216°
2026-04-22 02:49 23.77382 -100.76226 33791 ft 421 kts 216°
2026-04-22 02:50 23.74895 -100.77823 33978 ft 420 kts 216°
2026-04-22 02:50 23.69867 -100.81045 34067 ft 418 kts 216°
2026-04-22 02:51 23.64849 -100.84249 34067 ft 418 kts 216°
2026-04-22 02:51 23.59829 -100.87452 34067 ft 418 kts 216°
2026-04-22 02:52 23.54815 -100.90656 34080 ft 418 kts 216°
2026-04-22 02:52 23.49892 -100.93984 34088 ft 414 kts 221°
2026-04-22 02:53 23.45238 -100.97678 34087 ft 414 kts 221°
2026-04-22 02:53 23.40585 -101.01366 34088 ft 414 kts 221°
2026-04-22 02:54 23.35927 -101.05062 34091 ft 414 kts 221°
2026-04-22 02:54 23.31271 -101.08757 34096 ft 414 kts 221°
2026-04-22 02:55 23.26638 -101.12430 34092 ft 414 kts 221°
2026-04-22 02:55 23.21976 -101.16126 34098 ft 415 kts 220°
2026-04-22 02:56 23.17302 -101.19813 34095 ft 415 kts 220°
2026-04-22 02:56 23.12614 -101.23506 34094 ft 415 kts 220°
2026-04-22 02:57 23.07975 -101.27171 34096 ft 415 kts 220°
2026-04-22 02:57 23.03292 -101.30865 34087 ft 416 kts 220°
2026-04-22 02:58 22.98608 -101.34552 34096 ft 416 kts 220°
2026-04-22 02:58 22.93913 -101.38244 34086 ft 416 kts 220°
2026-04-22 02:59 22.89222 -101.41930 34098 ft 417 kts 220°
2026-04-22 02:59 22.84531 -101.45615 34099 ft 417 kts 220°
2026-04-22 03:00 22.79836 -101.49306 34092 ft 417 kts 220°
2026-04-22 03:00 22.75142 -101.52993 34086 ft 417 kts 220°
2026-04-22 03:01 22.70439 -101.56674 34082 ft 417 kts 220°
2026-04-22 03:01 22.65738 -101.60351 34077 ft 417 kts 220°
2026-04-22 03:02 22.61030 -101.64028 34074 ft 417 kts 220°
2026-04-22 03:02 22.56351 -101.67684 34074 ft 418 kts 220°
2026-04-22 03:03 22.51633 -101.71369 34070 ft 418 kts 220°
2026-04-22 03:03 22.46920 -101.75050 34065 ft 418 kts 220°
2026-04-22 03:04 22.42198 -101.78726 34060 ft 418 kts 220°
2026-04-22 03:04 22.37505 -101.82378 34047 ft 418 kts 220°
2026-04-22 03:05 22.32779 -101.86059 34044 ft 419 kts 220°
2026-04-22 03:05 22.28045 -101.89742 34050 ft 419 kts 220°
2026-04-22 03:06 22.23308 -101.93423 34050 ft 420 kts 220°
2026-04-22 03:06 22.18563 -101.97106 34044 ft 420 kts 220°
2026-04-22 03:07 22.13816 -102.00795 34044 ft 421 kts 220°
2026-04-22 03:07 22.09054 -102.04477 34042 ft 421 kts 220°
2026-04-22 03:08 22.04290 -102.08156 34045 ft 422 kts 220°
2026-04-22 03:08 21.99541 -102.11827 34065 ft 422 kts 220°
2026-04-22 03:09 21.94763 -102.15501 34129 ft 423 kts 219°
2026-04-22 03:09 21.89838 -102.19005 34191 ft 424 kts 217°
2026-04-22 03:10 21.84834 -102.22402 34257 ft 425 kts 217°
2026-04-22 03:10 21.79845 -102.25824 34320 ft 425 kts 217°
2026-04-22 03:11 21.74878 -102.29288 34335 ft 425 kts 218°
2026-04-22 03:11 21.69991 -102.32870 34341 ft 422 kts 222°
2026-04-22 03:12 21.65406 -102.36740 34341 ft 423 kts 222°
2026-04-22 03:12 21.58494 -102.42558 34157 ft 407 kts 222°
2026-04-22 03:13 21.56292 -102.44406 33994 ft 396 kts 222°
2026-04-22 03:13 21.54154 -102.46204 33831 ft 384 kts 223°
2026-04-22 03:13 21.52082 -102.47948 33671 ft 374 kts 223°
2026-04-22 03:13 21.50060 -102.49647 33482 ft 365 kts 223°
2026-04-22 03:14 21.48076 -102.51318 33161 ft 360 kts 223°
2026-04-22 03:14 21.46116 -102.52970 32786 ft 357 kts 223°
2026-04-22 03:14 21.44169 -102.54612 32399 ft 355 kts 223°
2026-04-22 03:14 21.42228 -102.56247 32012 ft 354 kts 223°
2026-04-22 03:15 21.40289 -102.57878 31638 ft 352 kts 223°
2026-04-22 03:15 21.38363 -102.59495 31268 ft 351 kts 223°
2026-04-22 03:15 21.36473 -102.61081 30913 ft 349 kts 223°
2026-04-22 03:15 21.34563 -102.62682 30546 ft 348 kts 223°
2026-04-22 03:16 21.32659 -102.64277 30184 ft 346 kts 223°
2026-04-22 03:16 21.30771 -102.65861 30053 ft 345 kts 223°
2026-04-22 03:16 21.26972 -102.69051 29846 ft 348 kts 223°
2026-04-22 03:17 21.25055 -102.70659 29339 ft 349 kts 223°
2026-04-22 03:17 21.23141 -102.72260 28890 ft 349 kts 223°
2026-04-22 03:17 21.21231 -102.73856 28449 ft 347 kts 222°
2026-04-22 03:17 21.19329 -102.75443 28039 ft 346 kts 222°
2026-04-22 03:18 21.17436 -102.77024 27625 ft 344 kts 222°
2026-04-22 03:18 21.15546 -102.78587 27224 ft 343 kts 219°
2026-04-22 03:18 21.13474 -102.79875 26832 ft 347 kts 208°
2026-04-22 03:18 21.11183 -102.80719 26431 ft 351 kts 197°
2026-04-22 03:19 21.08751 -102.81079 25948 ft 357 kts 186°
2026-04-22 03:19 21.06217 -102.80933 25148 ft 374 kts 176°
2026-04-22 03:19 21.03609 -102.80537 24336 ft 379 kts 175°
2026-04-22 03:19 21.01020 -102.80142 23546 ft 373 kts 175°
2026-04-22 03:20 20.98473 -102.79759 22636 ft 367 kts 175°
2026-04-22 03:20 20.95961 -102.79383 21756 ft 362 kts 174°
2026-04-22 03:20 20.93488 -102.78995 20902 ft 357 kts 174°
2026-04-22 03:20 20.91050 -102.78601 20072 ft 352 kts 173°
2026-04-22 03:21 20.88674 -102.78211 19274 ft 347 kts 173°
2026-04-22 03:21 20.86301 -102.77823 18486 ft 343 kts 173°
2026-04-22 03:21 20.83947 -102.77443 17609 ft 339 kts 172°
2026-04-22 03:21 20.81618 -102.77134 16731 ft 336 kts 181°
2026-04-22 03:22 20.79327 -102.77489 15904 ft 331 kts 201°
2026-04-22 03:22 20.77332 -102.78549 15518 ft 313 kts 211°
2026-04-22 03:22 20.75452 -102.79702 15183 ft 310 kts 211°
2026-04-22 03:22 20.73587 -102.80848 14854 ft 308 kts 211°
2026-04-22 03:23 20.71780 -102.81964 14548 ft 290 kts 211°
2026-04-22 03:23 20.70096 -102.83005 14246 ft 270 kts 211°
2026-04-22 03:23 20.68519 -102.83982 13978 ft 255 kts 211°
2026-04-22 03:23 20.67010 -102.84918 13626 ft 246 kts 211°
2026-04-22 03:24 20.65547 -102.85808 13270 ft 240 kts 205°
2026-04-22 03:24 20.63921 -102.86105 12916 ft 239 kts 179°
2026-04-22 03:24 20.62264 -102.85978 12571 ft 238 kts 175°
2026-04-22 03:24 20.60642 -102.85803 12248 ft 227 kts 175°
2026-04-22 03:25 20.59114 -102.85623 11907 ft 215 kts 175°
2026-04-22 03:25 20.57664 -102.85440 11572 ft 206 kts 175°
2026-04-22 03:25 20.56291 -102.85253 11255 ft 193 kts 175°
2026-04-22 03:25 20.54976 -102.85073 10924 ft 189 kts 177°
2026-04-22 03:26 20.53713 -102.85276 10589 ft 182 kts 208°
2026-04-22 03:26 20.52753 -102.86092 10264 ft 175 kts 233°
2026-04-22 03:26 20.51951 -102.87064 9955 ft 173 kts 233°
2026-04-22 03:26 20.51146 -102.88036 9607 ft 183 kts 232°
2026-04-22 03:27 20.50325 -102.89027 9265 ft 175 kts 232°
2026-04-22 03:27 20.49536 -102.89971 8921 ft 166 kts 233°
2026-04-22 03:27 20.48799 -102.90854 8827 ft 155 kts 234°
2026-04-22 03:27 20.48095 -102.91703 8816 ft 152 kts 233°
2026-04-22 03:28 20.47397 -102.92546 8819 ft 151 kts 233°
2026-04-22 03:28 20.46701 -102.93388 8830 ft 151 kts 234°
2026-04-22 03:28 20.46005 -102.94229 8832 ft 152 kts 233°
2026-04-22 03:28 20.45303 -102.95079 8836 ft 153 kts 233°
2026-04-22 03:29 20.44597 -102.95932 8843 ft 153 kts 233°
2026-04-22 03:29 20.43895 -102.96779 8841 ft 153 kts 232°
2026-04-22 03:29 20.43180 -102.97642 8858 ft 163 kts 232°
2026-04-22 03:29 20.42402 -102.98584 8865 ft 173 kts 233°
2026-04-22 03:30 20.41643 -102.99566 8861 ft 174 kts 239°
2026-04-22 03:30 20.41070 -103.00744 8875 ft 182 kts 252°
2026-04-22 03:30 20.40771 -103.02066 8883 ft 185 kts 265°
2026-04-22 03:30 20.40793 -103.03456 8880 ft 193 kts 280°
2026-04-22 03:31 20.41178 -103.04845 8898 ft 198 kts 290°
2026-04-22 03:31 20.41706 -103.06214 8906 ft 201 kts 293°
2026-04-22 03:31 20.42279 -103.07593 8793 ft 210 kts 294°
2026-04-22 03:31 20.42887 -103.09037 8611 ft 216 kts 294°
2026-04-22 03:32 20.43504 -103.10499 8375 ft 217 kts 293°
2026-04-22 03:32 20.44120 -103.11961 8133 ft 217 kts 293°
2026-04-22 03:32 20.44747 -103.13448 7887 ft 222 kts 294°
2026-04-22 03:32 20.45383 -103.14957 7639 ft 223 kts 294°
2026-04-22 03:33 20.45813 -103.15976 7458 ft 223 kts 293°
2026-04-22 03:33 20.46447 -103.17479 7223 ft 218 kts 293°
2026-04-22 03:33 20.47023 -103.18843 6984 ft 190 kts 292°
2026-04-22 03:33 20.47533 -103.20053 6821 ft 166 kts 292°
2026-04-22 03:34 20.47983 -103.21123 6634 ft 152 kts 292°
2026-04-22 03:34 20.48409 -103.22137 6461 ft 147 kts 292°
2026-04-22 03:34 20.48825 -103.23124 6300 ft 146 kts 291°
2026-04-22 03:34 20.49239 -103.24109 6146 ft 145 kts 292°
2026-04-22 03:35 20.49652 -103.25093 5967 ft 145 kts 292°
2026-04-22 03:35 20.50064 -103.26071 5763 ft 144 kts 291°
2026-04-22 03:35 20.50473 -103.27044 5564 ft 144 kts 291°
2026-04-22 03:35 20.50881 -103.28014 5344 ft 143 kts 290°
2026-04-22 03:36 20.51284 -103.28975 5103 ft 141 kts 291°
2026-04-22 03:36 20.51687 -103.29893 5027 ft 126 kts 293°
2026-04-22 03:36 20.51982 -103.30633 5028 ft 90 kts 293°
2026-04-22 03:36 20.52122 -103.30970 5031 ft 31 kts 292°
2026-04-22 03:37 20.52205 -103.31096 5032 ft 11 kts 356°
2026-04-22 03:37 20.52249 -103.31069 5031 ft 9 kts 35°
2026-04-22 03:37 20.52315 -103.31028 5030 ft 13 kts 29°
2026-04-22 03:37 20.52403 -103.30975 5031 ft 16 kts 29°
2026-04-22 03:38 20.52446 -103.30879 5030 ft 15 kts 76°
2026-04-22 03:38 20.52473 -103.30765 5029 ft 16 kts 101°
2026-04-22 03:38 20.52426 -103.30645 5029 ft 19 kts 114°
2026-04-22 03:38 20.52370 -103.30514 5029 ft 20 kts 114°
2026-04-22 03:39 20.52389 -103.30427 5029 ft 14 kts 17°
2026-04-22 03:39 20.52485 -103.30396 5029 ft 14 kts
2026-04-22 03:39 20.52526 -103.30384 5029 ft 1 kts 17°
2026-04-22 03:39 20.52527 -103.30383 5029 ft 0 kts 17°